This is the latest recevied weather packets stored in our database for station/object KD2ZLA. If no packets are shown the sender has not sent any weather packets the latest 10 day(s).
| Time | Temp. | Humidity | Pressure | Rain* | Wind** | Luminosity | Snow |
|---|---|---|---|---|---|---|---|
| 1777465160 | 13.89° C | 66% | 1012.1 hPa | 0 mm | - | 152 W/m² | - |
| 1777464856 | 13.89° C | 65% | 1012.2 hPa | 0 mm | - | 117 W/m² | - |
| 1777464551 | 13.89° C | 66% | 1012.4 hPa | 0 mm | - | 90 W/m² | - |
| 1777464247 | 13.89° C | 66% | 1012.3 hPa | 0 mm | - | 60 W/m² | - |
| 1777463942 | 13.89° C | 66% | 1012.4 hPa | 0 mm | - | 65 W/m² | - |
| 1777463638 | 13.89° C | 66% | 1012.3 hPa | 0 mm | - | 85 W/m² | - |
| 1777463333 | 13.89° C | 66% | 1012.4 hPa | 0 mm | - | 83 W/m² | - |
| 1777463030 | 13.89° C | 67% | 1012.6 hPa | 0 mm | - | 65 W/m² | - |
| 1777462725 | 13.89° C | 68% | 1012.6 hPa | 0 mm | - | 84 W/m² | - |
| 1777462420 | 13.89° C | 68% | 1012.5 hPa | 0 mm | - | 86 W/m² | - |
| 1777462117 | 13.89° C | 68% | 1012.5 hPa | 0 mm | - | 80 W/m² | - |
| 1777461814 | 13.33° C | 69% | 1012.6 hPa | 0 mm | - | 88 W/m² | - |
| 1777461510 | 13.33° C | 69% | 1012.5 hPa | 0 mm | - | 92 W/m² | - |
| 1777461206 | 13.33° C | 69% | 1012.5 hPa | 0 mm | - | 68 W/m² | - |
| 1777460902 | 13.33° C | 70% | 1012.6 hPa | 0 mm | - | 44 W/m² | - |
| 1777460597 | 13.33° C | 70% | 1012.5 hPa | 0 mm | - | 29 W/m² | - |
| 1777460293 | 13.33° C | 69% | 1012.5 hPa | 0 mm | - | 23 W/m² | - |
| 1777459991 | 13.33° C | 70% | 1012.5 hPa | 0 mm | - | 38 W/m² | - |
| 1777459687 | 13.33° C | 70% | 1012.4 hPa | 0 mm | - | 40 W/m² | - |
| 1777459383 | 13.33° C | 71% | 1012.7 hPa | 0 mm | - | 25 W/m² | - |
| 1777459081 | 13.33° C | 70% | 1012.7 hPa | 0 mm | - | 19 W/m² | - |
| 1777458778 | 13.33° C | 70% | 1012.7 hPa | 0 mm | - | 17 W/m² | - |
| 1777458475 | 13.33° C | 70% | 1012.6 hPa | 0 mm | - | 15 W/m² | - |
| 1777458172 | 13.33° C | 70% | 1012.6 hPa | 0 mm | - | 14 W/m² | - |
| 1777457866 | 13.33° C | 70% | 1012.7 hPa | 0 mm | - | 7 W/m² | - |
* Rain latest hour (hover to see other rain measurements)
** Current wind speed in m/s (hover to see current wind gust speed)